Location: Burla
(50.9568°N, 10.4983°E)
Time: 18:07:44
(UTC+00:00)

CENTAUR R/B - Pass Details

Date: 18 January 2026
Orbit: 629 x 1552 km, 63.4° (Epoch: 16 February)

Event Time Altitude Azimuth Distance (km) Brightness Sun altitude
Rises 05:20:45 0° 200° (SSW) 3,208 5.1 -17.0°
Reaches altitude 10° 05:22:59 10° 195° (SSW) 2,384 4.5 -16.6°
Maximum altitude 05:28:16 49° 121° (ESE) 1,188 3.4 -15.8°
Drops below altitude 10° 05:34:56 10° 49° (NE) 2,993 5.5 -14.8°
Sets 05:38:01 0° 45° (NE) 4,109 6.2 -14.3°
